Temp
19 18 18 18 19 19 18 18 18 18 18 18 20 14 17 18 17 17 16 17 17 17 17 17 17 17 18 18 16 16 15 14
19 18 18 17 18 18 18 18 18 17 16 16 17 15 16 18 18 18 17 17 17 16 17 17 17 18 18 17 17 16 15 14
18 18 18 17 17 17 17 17 18 16 17 14 15 15 16 17 18 17 17 17 17 16 17 17 17 18 18 17 16 16 15 14
17 17 17 17 16 16 17 17 17 17 17 15 15 15 16 16 17 17 16 16 16 16 16 17 17 18 18 17 16 15 15 14
16 16 17 17 17 17 17 17 17 17 16 15 15 15 16 16 16 15 15 15 15 16 16 17 17 18 18 17 16 15 15 13
16 16 16 16 16 17 16 17 17 17 16 15 16 15 15 15 15 15 15 15 15 15 16 16 17 18 18 17 15 15 14 13
17 16 15 16 16 16 16 16 16 17 16 15 15 15 15 15 14 14 15 15 15 15 15 16 17 17 17 16 16 15 14 13
17 16 16 15 16 16 16 16 16 16 15 15 16 15 14 14 14 15 14 16 15 15 16 16 17 17 17 16 16 15 14 13
16 17 17 16 15 15 15 15 15 16 16 15 15 15 14 14 14 14 14 16 16 16 16 17 17 17 17 16 16 15 15 14
16 16 16 16 15 15 15 14 14 15 15 15 15 15 15 14 14 14 14 16 16 16 16 17 17 17 17 16 15 15 15 14
16 16 16 16 15 15 15 14 14 14 14 15 15 14 14 14 13 14 14 17 16 16 17 17 17 17 17 17 15 15 15 14
17 16 15 15 14 14 13 12 13 13 13 14 14 14 14 13 13 14 15 17 16 16 17 17 17 17 17 17 17 16 15 15
15 15 14 14 13 12 11 11 11 11 11 13 14 14 13 12 12 14 15 16 17 17 17 17 17 17 17 16 17 17 16 15
15 15 14 14 12 12 12 11 11 11 11 11 12 12 12 12 13 14 14 16 16 17 17 16 17 17 16 16 13 15 16 16
15 15 14 14 13 12 11 11 11 11 10 11 11 12 12 13 13 13 13 15 16 16 17 17 16 17 16 15 12 12 14 16
16 15 14 14 13 12 11 11 11 11 11 11 11 11 12 12 13 13 13 14 15 16 17 17 16 16 15 15 17 16 12 12
16 15 14 13 12 12 11 11 12 11 10 10 10 10 11 12 12 13 13 14 15 16 16 16 16 16 16 15 14 15 14 12
15 14 14 13 12 12 11 11 11 11 11 10 10 11 12 12 13 13 14 14 15 15 15 16 16 16 16 16 15 14 13 13
14 14 14 13 12 12 12 12 11 11 11 11 11 11 12 13 13 14 14 14 15 15 15 15 16 15 15 15 16 15 15 15
14 14 14 13 13 12 12 12 11 11 11 11 11 12 12 13 13 13 14 14 15 15 15 15 15 15 14 15 15 15 15 15
Height
761 762 764 766 767 769 773 776 778 781 779 786 784 793 801 801 806 810 815 818 821 826 828 832 834 838 841 842 844 847 849 853
760 761 764 765 767 769 771 774 778 779 781 781 783 796 802 802 805 809 816 818 822 826 829 832 835 839 842 842 846 848 850 855
759 760 762 764 765 767 769 772 774 778 781 783 782 787 795 803 806 811 815 817 820 826 830 832 837 839 843 844 847 849 851 857
757 759 761 762 764 766 767 768 770 772 777 778 780 789 794 799 808 813 817 820 821 827 832 833 837 839 843 845 848 851 853 858
755 757 760 761 762 764 765 766 767 771 779 778 775 788 796 800 805 814 818 821 823 827 832 833 837 839 844 847 850 852 854 859
752 755 758 760 761 763 765 764 765 767 774 779 780 789 794 799 799 809 816 820 822 828 831 834 838 840 845 849 851 853 855 859
748 752 756 759 761 762 763 764 765 766 770 777 782 787 790 795 801 803 811 818 823 827 831 834 837 840 844 847 851 853 855 859
746 748 753 757 760 761 763 765 767 767 770 775 779 784 788 794 799 802 808 812 822 826 830 833 837 840 844 847 850 854 857 859
742 746 749 754 758 759 761 763 764 766 770 773 776 781 785 790 796 800 805 808 820 825 831 834 837 841 844 846 850 854 856 859
740 744 748 751 754 756 759 761 762 764 767 771 774 778 783 787 792 797 804 808 817 823 829 832 836 839 843 847 850 854 857 859
737 743 746 748 752 754 756 758 761 763 765 766 769 773 778 783 787 794 804 808 814 821 827 831 834 838 843 847 849 854 857 859
735 740 744 747 750 753 755 756 757 758 760 763 765 769 774 781 786 793 801 803 812 819 824 830 834 837 842 846 850 853 856 858
732 737 741 744 748 752 754 755 757 757 757 758 763 766 771 775 782 790 797 801 809 816 821 827 832 837 840 846 850 854 855 856
729 734 738 743 747 749 751 754 757 758 758 757 760 762 767 773 778 790 795 801 809 814 819 825 829 834 838 841 849 853 852 855
724 730 735 741 745 749 751 754 757 759 761 762 764 765 768 775 783 791 797 802 807 813 817 822 827 831 835 839 847 847 849 853
719 726 732 738 743 747 749 751 756 759 762 764 767 771 774 780 785 791 795 802 806 811 816 820 823 826 834 836 836 834 845 852
715 723 730 736 740 744 748 751 756 759 764 767 770 774 777 782 787 792 795 800 804 810 814 818 819 824 829 831 834 835 839 844
712 719 728 734 738 743 746 749 753 758 763 767 771 774 779 784 787 791 795 798 802 807 812 815 818 823 826 828 830 833 837 838
708 715 724 731 735 739 743 748 751 753 758 763 768 773 777 780 785 788 792 796 801 806 809 814 816 819 823 826 828 830 834 836
704 711 719 726 730 735 739 745 749 752 755 760 764 767 772 777 782 785 789 793 798 802 805 809 812 817 820 823 825 826 828 831
Wind_Speed
5 7 13 14 16 19 21 23 24 17 25 29 25 30 29 32 30 29 29 26 22 32 31 29 31 27 20 18 33 29 27 26
8 9 11 14 14 15 16 14 12 17 15 16 27 24 26 31 30 27 27 23 22 29 29 30 30 26 24 31 29 25 24 26
9 11 11 12 15 16 16 11 10 15 15 16 19 23 30 29 28 29 27 23 26 29 29 31 29 28 29 32 28 26 25 27
14 10 12 11 15 16 16 13 13 14 12 15 26 32 33 30 22 24 23 23 31 30 28 30 29 29 28 27 23 28 26 30
13 11 12 14 13 11 12 12 16 17 18 14 20 33 37 32 28 23 25 25 29 28 26 29 30 30 30 19 25 28 28 30
11 14 13 15 14 14 13 11 12 16 21 20 33 34 37 32 35 28 26 26 27 28 28 30 30 29 22 15 27 27 30 31
15 15 14 15 16 16 14 14 12 14 20 26 36 39 36 35 35 36 33 28 29 29 28 29 31 26 14 15 29 27 30 31
19 17 19 17 15 13 15 16 18 15 25 34 34 39 36 38 35 37 34 31 31 34 28 33 30 18 15 19 26 27 29 29
24 20 18 17 14 14 14 16 17 19 25 31 37 41 39 41 35 40 35 34 34 33 25 30 24 17 18 16 27 26 27 29
27 24 18 16 16 16 16 15 14 17 23 30 39 39 42 39 38 40 34 36 41 31 34 30 25 23 21 21 26 25 25 27
26 22 20 18 16 12 10 10 13 17 21 24 35 41 41 38 38 40 37 38 39 28 34 32 28 26 19 18 24 25 24 23
26 23 21 18 16 12 11 12 11 13 20 27 29 39 41 41 44 41 42 40 35 37 34 28 28 28 22 18 17 23 24 22
29 26 22 20 20 21 20 17 16 17 19 28 35 38 41 40 38 42 36 37 37 38 32 32 31 29 25 19 18 18 20 21
30 27 24 20 22 21 19 22 20 22 23 27 33 38 41 40 41 33 31 36 36 35 33 30 32 30 22 16 3 10 20 19
33 28 24 21 22 21 20 19 23 21 19 28 31 35 39 40 36 34 34 31 34 32 33 28 27 25 23 9 2 4 6 12
30 27 25 23 24 25 25 21 20 18 23 24 28 34 40 40 41 31 32 29 29 32 33 33 30 26 20 15 9 11 4 1
32 28 23 27 27 26 28 22 22 24 21 25 27 25 28 34 37 29 30 32 32 32 33 32 30 28 26 18 13 13 12 4
35 31 27 27 29 27 29 27 24 24 24 25 25 29 33 30 33 35 29 36 38 34 31 31 29 26 28 20 18 8 11 6
34 31 27 27 31 32 29 29 29 31 31 29 28 27 31 34 33 37 37 34 37 35 34 33 34 27 26 26 22 17 16 23
31 32 28 27 31 33 32 30 30 30 34 30 31 29 33 32 34 38 40 38 35 35 35 35 33 29 30 32 24 26 22 20
Wind_Direction
188 208 193 184 184 189 193 190 199 222 212 239 244 260 182 165 160 156 160 162 160 156 151 153 150 147 144 130 138 134 124 124
193 213 197 187 183 183 192 198 214 210 191 199 220 247 194 168 161 165 169 164 159 159 160 159 154 145 125 128 136 130 123 127
185 191 200 195 193 200 201 196 196 184 209 183 198 195 179 168 167 168 168 166 160 158 160 156 151 141 128 129 132 134 129 131
189 183 181 188 197 204 212 218 219 220 194 167 188 174 166 160 165 167 169 167 162 160 162 157 151 143 142 129 141 142 136 137
178 175 189 190 188 185 187 197 214 213 186 147 149 170 167 163 160 165 165 167 162 161 165 164 155 151 153 136 148 144 140 140
167 173 181 188 175 177 182 183 200 206 192 168 173 179 165 160 159 169 171 172 162 167 166 166 163 160 163 144 156 147 146 144
169 181 176 188 191 193 194 196 193 200 189 176 169 169 167 167 164 169 174 172 169 165 162 166 165 163 172 140 162 152 150 147
176 177 183 175 188 190 192 197 200 191 185 182 182 180 177 169 171 176 174 170 170 161 160 167 162 159 161 142 161 155 154 151
179 179 176 191 188 191 196 190 200 196 199 189 189 186 181 176 172 176 175 167 168 163 168 171 167 170 169 145 157 157 159 160
178 180 178 181 193 193 197 206 202 204 203 200 192 188 185 175 171 172 173 169 169 168 173 170 173 170 166 151 163 158 160 166
174 179 179 180 192 200 222 215 208 212 212 206 198 195 191 177 170 168 177 172 171 179 172 172 166 168 167 155 157 162 164 165
171 171 172 174 176 184 189 203 199 214 210 206 200 196 192 181 168 172 177 171 177 173 166 167 169 166 164 161 156 167 171 177
165 162 167 167 167 163 159 162 180 177 185 201 191 189 176 162 161 165 170 170 166 166 163 168 168 166 163 157 172 185 180 187
163 166 168 176 171 175 162 166 153 148 143 149 155 151 155 152 155 169 168 166 166 166 164 155 164 169 167 150 141 179 198 205
166 170 177 184 183 177 162 154 156 153 146 144 148 156 155 157 164 163 160 162 163 166 169 168 166 170 172 159 146 183 153 199
169 174 178 184 185 172 165 155 163 173 169 160 155 162 165 172 172 172 172 175 175 175 178 184 182 176 191 207 175 151 146 201
169 174 180 183 185 182 172 166 176 178 171 169 169 162 163 178 183 184 183 183 185 191 191 193 185 193 196 194 181 153 152 139
166 170 179 181 185 181 179 177 173 172 172 177 177 177 182 182 189 187 190 192 198 204 199 200 194 209 212 207 195 167 198 164
165 170 176 181 185 185 183 186 181 181 181 185 181 187 192 200 201 201 203 199 203 207 204 204 202 209 213 226 218 215 211 208
162 169 177 183 183 188 188 187 186 188 189 190 191 192 195 201 204 203 205 209 205 206 209 207 208 214 209 218 217 225 221 231